Voltar ao catálogo

STARLINK-30291

AtivoComunicaçõesVLEO
NORAD 57856·PAYLOAD·🇺🇸 United States

Lançado Sep 12, 2023 de Vandenberg Space Force Base

Loading…

Próximas Passagens (próximas 24 horas)

TLE

AtualizadoSource: CelesTrak SupGP

Época: Sep 14, 2026, 21:35 UTC

1 57856C 23141S   26257.89979167 -.00140840  00000+0 -45232-2 0  2573
2 57856  53.1571 123.7410 0001413  82.6097  89.2264 15.31812642    19

Acompanhe STARLINK-30291 em tempo real com AllMySat

Download on the App Store